Location: Tel Aviv
(32.0670°N, 34.7670°E)
Time: 03:53:15
(UTC+03:00)

AO-7 - Pass Details

Date: 25 September 2024
Orbit: 1440 x 1458 km, 102.0° (Epoch: 10 October)

Event Time Altitude Azimuth Distance (km) Brightness Sun altitude
Rises 19:21:01 0° 216° (SW) 4,540 ? -10.9°
Reaches altitude 10° 19:26:05 10° 243° (WSW) 3,570 ? -12.0°
Maximum altitude 19:29:22 13° 267° (W) 3,363 ? -12.7°
Drops below altitude 10° 19:32:40 10° 291° (WNW) 3,581 ? -13.4°
Sets 19:37:50 0° 318° (NW) 4,566 ? -14.5°
